Wind_Speed
43 44 45 46 47 48 50 52 53 55 56 56 56 57 58 60 61 62 63 63 62 62 62 63 65 66 67 67 67 66 66 66 65 64 63 63 62 61 60 60 59 58 57
48 50 51 51 52 54 57 59 62 63 64 65 65 64 64 65 66 67 67 68 67 67 66 65 66 67 67 68 68 68 67 68 68 68 67 66 65 65 64 64 63 62 61
56 58 59 61 62 63 64 65 67 69 71 71 71 71 70 70 72 72 72 73 73 73 72 72 71 70 71 71 71 70 69 68 68 67 67 67 67 67 66 66 66 65 63
66 68 69 70 70 70 70 70 70 72 74 76 78 78 77 76 77 77 77 77 78 78 78 78 77 76 76 76 76 75 74 72 70 69 68 67 66 66 65 66 66 65 65
72 75 77 77 76 75 74 74 74 76 78 81 82 83 82 81 80 80 80 79 79 79 79 80 81 81 80 80 81 81 80 78 76 74 72 70 68 67 66 66 65 65 65
76 78 79 80 80 79 79 79 80 81 82 82 82 81 79 77 75 75 76 76 76 76 77 80 81 82 81 82 82 83 83 82 80 78 77 75 73 71 70 68 67 66 65
77 78 79 80 81 82 83 83 82 80 79 76 71 67 63 61 60 61 63 65 66 68 70 73 76 78 79 79 80 81 82 82 81 80 79 77 76 75 74 72 71 70 68
77 78 80 82 84 84 84 83 79 73 66 59 52 48 47 47 49 52 55 58 61 63 65 67 69 69 70 70 69 72 74 75 76 77 77 77 76 75 74 74 73 72 70
75 78 81 83 83 82 79 75 67 58 50 42 38 38 40 42 44 46 47 49 52 55 59 63 65 63 61 61 60 61 63 64 65 67 69 71 73 73 73 72 72 71 70
73 73 72 70 66 63 57 51 46 41 36 33 33 35 37 39 39 39 41 43 44 44 45 51 58 59 57 55 54 53 54 54 54 55 57 60 63 66 66 67 67 67 67
61 57 53 53 52 47 41 36 32 30 29 30 31 33 35 36 37 39 41 42 41 39 37 38 44 52 54 53 52 50 49 49 48 48 49 52 55 57 59 61 62 64 64
52 51 50 48 44 39 33 28 26 26 26 28 29 32 34 35 36 37 38 38 35 32 30 29 32 40 48 51 52 50 47 46 46 46 47 51 54 55 56 58 60 61 62
47 47 46 43 38 34 30 27 25 26 27 28 30 32 34 34 34 34 34 33 30 25 23 22 24 31 39 44 48 50 50 47 45 45 46 48 53 57 57 58 58 58 59
45 44 42 40 36 33 31 29 28 29 30 31 32 33 34 34 32 31 30 28 25 21 19 19 20 25 31 38 44 47 48 47 45 43 44 44 47 51 53 54 53 53 52
44 43 42 40 38 35 33 33 32 33 33 34 35 34 34 34 32 29 27 25 23 19 17 17 20 25 28 32 37 40 42 44 43 41 40 40 41 44 47 49 49 49 50
43 43 43 42 40 38 37 36 36 37 37 38 38 37 35 34 32 30 26 23 21 18 17 16 20 24 27 29 32 35 37 39 39 39 38 37 39 42 43 45 46 47 48
43 44 45 45 44 43 42 41 40 40 40 41 41 40 38 36 33 31 27 24 21 19 18 18 19 23 27 29 30 32 33 35 36 36 36 36 38 40 42 43 45 46 46
44 46 48 48 48 48 48 47 46 45 45 44 43 42 40 38 35 33 30 26 23 21 21 20 20 23 25 27 27 28 29 31 31 32 34 35 37 39 42 43 44 45 46
47 50 51 52 53 53 52 51 51 50 48 47 45 43 41 39 36 34 32 30 27 25 24 23 23 24 26 27 28 28 30 30 31 33 35 36 37 38 40 41 42 43 45
50 53 55 56 56 56 55 54 53 52 51 49 46 44 41 39 36 34 33 32 31 29 28 27 27 27 27 29 30 31 31 32 34 35 36 37 38 38 38 39 39 40 41
53 55 58 59 59 58 58 58 57 56 54 52 49 47 44 41 38 35 33 33 32 32 32 32 32 31 31 31 32 33 34 35 36 36 37 38 39 39 39 38 37 37 38
56 58 59 60 61 62 61 60 58 56 55 53 51 49 46 44 42 39 36 35 34 34 34 35 36 37 37 36 36 36 36 37 37 38 38 38 39 39 39 38 37 37 36
58 60 61 61 61 60 57 55 53 51 49 47 46 46 45 44 44 43 41 39 38 37 36 37 38 40 41 42 42 42 41 41 41 40 40 40 40 41 40 40 39 39 39
60 61 59 55 52 51 50 49 49 48 47 45 43 41 39 39 39 41 43 43 43 42 41 41 41 42 44 46 47 47 47 47 47 46 45 44 43 43 43 43 42 41 41
59 55 50 47 47 48 49 49 50 50 49 47 45 42 39 36 34 34 35 39 43 46 47 46 46 46 47 49 50 51 51 52 52 52 51 50 49 48 46 45 45 44 43
50 45 44 45 46 48 49 50 51 51 50 48 46 43 40 37 34 32 31 31 33 37 42 47 50 51 51 52 53 54 55 55 56 56 56 55 54 54 52 50 49 48 47
Wind_Direction
301 299 296 293 289 286 283 281 279 278 277 276 274 272 270 269 269 269 268 267 266 266 265 264 263 262 261 259 258 257 256 256 255 254 254 254 254 253 254 254 254 255 255
302 299 296 293 289 285 283 282 281 280 279 277 275 273 270 268 266 266 267 267 267 267 266 265 263 262 261 260 259 258 257 256 255 255 254 253 253 253 253 253 253 253 254
304 301 298 295 291 288 286 284 283 282 281 280 277 274 272 271 270 268 267 267 266 266 266 265 264 263 262 260 259 258 257 256 255 255 254 253 252 252 252 252 252 252 252
304 302 299 296 293 290 288 286 284 283 283 283 283 281 279 276 274 272 270 268 267 266 266 265 264 263 262 261 260 259 258 256 255 254 253 252 251 251 250 250 250 250 251
302 299 298 296 293 291 288 286 285 284 283 284 284 284 284 282 280 278 275 272 269 267 265 264 263 262 262 261 260 259 258 256 255 254 252 251 250 249 249 249 249 248 249
300 298 296 294 292 290 288 286 285 285 285 286 286 286 286 285 283 280 278 275 272 268 264 262 260 259 258 257 257 257 256 255 254 253 252 250 250 249 249 249 249 248 248
299 297 294 292 290 289 288 288 288 288 290 291 291 290 288 285 283 280 277 275 272 268 263 260 257 255 254 254 253 253 252 252 252 251 250 249 248 248 248 248 248 248 247
298 295 294 293 293 292 291 290 291 292 293 293 291 290 289 288 287 285 282 278 272 267 263 258 255 252 250 248 248 249 249 249 249 249 248 247 246 246 246 246 246 246 246
296 296 296 296 297 296 295 294 293 293 293 292 291 293 295 297 298 298 297 293 287 277 267 257 252 250 247 244 243 244 246 247 248 247 246 245 244 244 244 244 244 244 244
299 301 303 305 306 305 303 299 297 295 293 294 295 298 302 303 305 305 304 302 298 290 278 261 248 242 240 240 240 242 245 246 246 246 244 243 243 243 243 243 243 243 244
310 314 317 318 318 316 311 305 300 298 296 297 299 304 306 306 305 308 309 308 301 292 284 270 251 238 234 233 236 239 243 244 243 242 242 241 241 242 242 243 243 244 244
320 324 325 325 325 323 319 314 310 306 304 304 306 309 310 309 308 310 314 314 308 297 285 272 253 236 229 229 232 234 237 240 239 239 239 239 240 241 243 243 244 245 245
327 328 329 330 331 330 327 324 321 318 316 315 314 314 313 311 309 312 316 319 315 304 288 272 251 236 229 230 232 233 234 236 236 237 238 241 242 241 241 242 243 244 245
331 332 335 337 337 336 334 332 329 327 325 322 319 317 315 312 309 312 316 319 319 308 288 270 250 235 231 232 233 235 236 236 235 237 239 241 242 241 240 240 240 241 241
333 335 338 340 340 337 335 332 330 328 326 323 320 317 315 311 308 309 312 315 317 311 291 269 249 237 234 234 234 235 235 235 236 236 236 235 235 235 236 236 237 239 241
336 338 338 338 338 336 333 329 326 324 321 319 318 316 314 310 306 303 304 306 307 304 292 273 252 241 238 235 233 233 232 233 233 233 232 231 231 231 233 234 237 239 242
337 338 337 336 335 333 330 327 324 321 318 316 315 313 312 309 304 298 295 294 292 292 287 275 260 245 237 234 234 233 232 231 231 230 230 229 230 231 232 235 238 241 243
335 336 335 334 333 331 328 325 323 320 318 316 313 312 310 308 304 297 290 284 280 277 276 273 262 250 243 239 237 235 231 229 227 226 227 229 231 233 235 237 240 242 244
332 332 332 331 330 328 325 323 321 318 316 314 312 310 307 305 302 297 289 281 273 268 265 263 261 255 248 242 238 234 229 227 227 228 228 230 234 236 238 240 242 244 245
330 329 328 327 326 325 323 320 318 316 314 312 309 307 304 301 298 295 289 280 272 265 260 257 255 253 249 246 241 235 232 231 231 231 232 234 237 238 239 241 244 245 247
329 327 326 325 324 322 321 318 316 314 311 308 306 303 300 297 294 290 286 280 273 265 258 254 252 250 248 246 244 239 236 235 234 235 236 238 239 240 240 241 243 246 246
328 327 326 325 324 322 321 319 317 315 312 308 304 300 295 291 287 284 280 277 272 266 259 254 251 249 247 246 245 242 240 237 237 237 238 239 240 240 241 243 244 245 245
329 328 328 327 327 327 328 328 328 326 323 319 313 306 299 291 285 279 274 270 268 265 261 256 252 249 247 246 244 244 243 241 240 241 241 242 242 241 242 243 244 244 243
331 331 332 334 337 340 342 343 342 341 338 335 331 325 317 307 295 285 276 270 265 262 259 257 254 250 248 246 245 244 243 243 242 242 242 243 243 243 242 242 242 242 242
335 337 342 347 351 353 352 351 350 348 346 344 342 338 333 326 317 305 292 280 271 264 260 256 254 253 251 248 246 245 244 244 244 243 243 243 243 242 242 242 242 241 241
342 349 354 357 356 356 355 355 354 352 351 349 346 344 342 338 332 325 315 302 289 277 268 262 256 253 252 251 249 247 246 245 244 244 244 243 243 243 242 241 241 241 240
Height
5760 5753 5747 5741 5735 5730 5725 5720 5715 5711 5706 5702 5698 5695 5691 5688 5685 5683 5681 5680 5679 5679 5680 5681 5681 5682 5684 5686 5688 5691 5693 5696 5699 5702 5705 5708 5712 5715 5717 5720 5723 5727 5730
5749 5742 5735 5728 5721 5715 5708 5702 5697 5691 5687 5682 5679 5675 5672 5669 5667 5665 5663 5661 5660 5660 5661 5662 5663 5663 5665 5667 5669 5672 5675 5677 5680 5684 5687 5691 5695 5698 5701 5705 5708 5711 5715
5735 5727 5719 5711 5703 5696 5689 5682 5676 5669 5664 5659 5655 5652 5650 5647 5644 5643 5642 5641 5640 5640 5640 5641 5643 5644 5645 5647 5649 5652 5655 5659 5662 5665 5669 5673 5677 5680 5684 5688 5692 5696 5699
5717 5707 5698 5689 5680 5673 5666 5659 5653 5646 5639 5633 5628 5624 5621 5620 5618 5617 5617 5617 5616 5616 5616 5617 5619 5622 5624 5626 5628 5631 5635 5639 5643 5646 5650 5654 5658 5662 5666 5670 5674 5679 5683
5698 5686 5675 5665 5656 5648 5642 5636 5629 5622 5615 5608 5602 5596 5593 5590 5588 5586 5587 5589 5590 5589 5589 5590 5593 5596 5600 5602 5605 5608 5612 5617 5622 5626 5631 5635 5639 5643 5647 5652 5657 5661 5666
5677 5665 5653 5643 5633 5625 5618 5611 5605 5598 5591 5584 5577 5572 5568 5564 5561 5558 5556 5557 5559 5560 5560 5560 5564 5569 5574 5577 5580 5583 5587 5592 5598 5604 5609 5614 5619 5624 5628 5634 5639 5644 5649
5654 5643 5632 5621 5612 5603 5595 5588 5581 5575 5569 5563 5556 5551 5546 5542 5538 5535 5532 5530 5531 5531 5531 5530 5534 5541 5547 5551 5554 5558 5562 5567 5573 5579 5585 5592 5597 5602 5608 5614 5619 5625 5630
5634 5622 5610 5599 5589 5580 5571 5565 5560 5555 5550 5545 5540 5535 5530 5526 5522 5516 5512 5508 5507 5506 5505 5505 5508 5514 5521 5527 5531 5534 5539 5544 5549 5556 5562 5569 5574 5580 5586 5593 5599 5605 5611
5617 5605 5593 5580 5568 5558 5550 5543 5540 5537 5534 5530 5527 5522 5517 5512 5506 5500 5493 5488 5483 5481 5480 5481 5485 5492 5499 5506 5510 5514 5518 5523 5529 5535 5541 5547 5553 5559 5566 5573 5579 5587 5593
5603 5591 5578 5564 5552 5540 5532 5526 5523 5522 5520 5518 5515 5511 5505 5500 5493 5487 5481 5474 5467 5461 5458 5457 5462 5470 5480 5487 5493 5498 5502 5507 5513 5519 5524 5529 5535 5542 5549 5556 5562 5568 5575
5588 5577 5565 5553 5541 5530 5521 5516 5513 5512 5510 5508 5504 5500 5494 5488 5482 5476 5469 5461 5453 5447 5443 5440 5443 5451 5461 5471 5477 5483 5488 5493 5499 5505 5510 5516 5522 5528 5534 5540 5546 5553 5559
5576 5566 5555 5545 5534 5524 5517 5511 5508 5505 5502 5499 5495 5490 5485 5479 5473 5466 5459 5450 5442 5436 5432 5430 5431 5437 5446 5455 5462 5468 5474 5480 5485 5491 5497 5502 5508 5515 5520 5526 5531 5537 5543
5570 5560 5550 5539 5529 5521 5514 5508 5504 5500 5496 5491 5487 5481 5476 5470 5464 5458 5450 5442 5435 5429 5426 5424 5424 5428 5435 5442 5448 5455 5461 5466 5472 5478 5483 5489 5495 5501 5506 5511 5517 5523 5528
5563 5554 5544 5535 5526 5518 5511 5505 5500 5495 5489 5484 5479 5474 5468 5462 5456 5450 5443 5436 5430 5425 5422 5420 5420 5423 5428 5433 5437 5443 5448 5454 5460 5466 5471 5476 5481 5487 5492 5498 5503 5508 5514
5557 5548 5539 5530 5522 5515 5508 5501 5495 5489 5483 5478 5472 5466 5460 5454 5448 5442 5437 5431 5425 5421 5418 5417 5417 5419 5422 5425 5429 5433 5438 5444 5450 5455 5459 5464 5468 5473 5479 5485 5490 5495 5500
5552 5543 5534 5526 5518 5510 5503 5496 5490 5483 5476 5470 5464 5458 5452 5446 5440 5435 5430 5425 5421 5417 5414 5413 5413 5414 5415 5418 5421 5425 5430 5434 5439 5444 5448 5452 5457 5462 5467 5473 5478 5483 5488
5546 5537 5529 5520 5512 5504 5496 5489 5482 5475 5468 5461 5454 5448 5442 5436 5431 5426 5422 5418 5415 5412 5409 5408 5408 5408 5409 5411 5414 5417 5421 5425 5429 5434 5438 5442 5446 5451 5456 5461 5466 5471 5474
5541 5532 5523 5514 5505 5497 5488 5480 5472 5465 5457 5450 5443 5437 5431 5425 5420 5416 5412 5410 5407 5405 5403 5402 5402 5402 5403 5404 5406 5408 5411 5415 5419 5423 5427 5432 5436 5441 5445 5450 5454 5458 5462
5535 5525 5516 5506 5497 5488 5479 5470 5462 5453 5445 5438 5431 5424 5419 5414 5409 5405 5401 5399 5397 5396 5395 5395 5394 5394 5395 5396 5397 5399 5402 5405 5408 5413 5417 5421 5426 5430 5434 5439 5442 5446 5448
5528 5518 5508 5498 5488 5478 5468 5458 5449 5441 5432 5424 5417 5411 5406 5401 5397 5393 5389 5387 5386 5385 5385 5385 5385 5386 5386 5387 5389 5391 5393 5396 5399 5403 5407 5411 5415 5418 5422 5426 5429 5432 5434
5521 5511 5499 5488 5477 5466 5456 5446 5436 5427 5418 5409 5402 5396 5391 5386 5383 5379 5377 5374 5373 5372 5372 5373 5374 5374 5376 5377 5378 5380 5383 5385 5389 5392 5396 5400 5403 5407 5410 5414 5417 5419 5422
5514 5502 5490 5477 5465 5454 5443 5432 5421 5411 5401 5393 5385 5379 5374 5370 5366 5364 5362 5360 5358 5358 5358 5359 5360 5362 5363 5365 5366 5368 5371 5374 5378 5381 5384 5387 5391 5394 5398 5402 5404 5407 5410
5505 5492 5480 5467 5454 5441 5430 5419 5407 5397 5387 5377 5369 5361 5355 5351 5348 5346 5344 5343 5342 5342 5343 5344 5345 5347 5348 5350 5352 5355 5358 5361 5365 5368 5371 5375 5378 5382 5385 5389 5392 5396 5399
5496 5483 5470 5458 5446 5434 5422 5411 5399 5388 5377 5367 5357 5349 5341 5335 5330 5327 5325 5325 5324 5324 5326 5327 5328 5330 5332 5334 5336 5339 5342 5346 5350 5353 5357 5361 5364 5368 5372 5376 5380 5383 5387
5487 5475 5463 5452 5441 5430 5419 5407 5395 5383 5372 5361 5350 5341 5332 5324 5318 5313 5309 5307 5306 5306 5307 5309 5310 5312 5314 5316 5318 5321 5325 5328 5332 5336 5341 5345 5349 5353 5357 5361 5366 5370 5374
5481 5470 5460 5450 5440 5429 5417 5405 5393 5381 5369 5357 5346 5336 5326 5318 5310 5303 5298 5293 5290 5289 5288 5289 5291 5293 5295 5296 5299 5302 5305 5309 5313 5317 5322 5326 5331 5336 5340 5345 5350 5355 5360